Terug naar catalogus

FENGYUN 1C DEB

ActiefPO
NORAD 36182·DEBRIS·🇨🇳 China

Gelanceerd May 10, 1999 vanaf Taiyuan Satellite Launch Center

Loading…

Volgende Passages (komende 24 uur)

TLE

VersSource: Space-Track

Epoch: Sep 14, 2026, 03:17 UTC

1 36182U 99025DTF 26257.13735311  .00002351  00000-0  81349-3 0  9990
2 36182  99.0991 204.6624 0022063 358.7950   1.3177 14.36622009919093

Volg FENGYUN 1C DEB in realtime met AllMySat

Download on the App Store